Location: Passau
(48.5830°N, 13.4830°E)
Time: 20:17:26
(UTC+02:00)

S-56A Canister/Altair - Pass Details

Date: 27 May 2024
Orbit: 637 x 2489 km, 38.9° (Epoch: 15 June)

Event Time Altitude Azimuth Distance (km) Brightness Sun altitude
Rises 04:17:44 0° 204° (SSW) 6,151 - -7.7°
Exits shadow 04:19:22 - 202° (SSW) 5,806 11.4 -7.5°
Reaches altitude 10° 04:22:47 10° 194° (SSW) 5,110 11.2 -7.1°
Maximum altitude 04:33:38 26° 146° (SE) 3,634 10.9 -5.8°
Drops below altitude 10° 04:42:47 10° 96° (E) 4,277 12.0 -4.7°
Sets 04:46:30 0° 85° (E) 5,002 12.7 -4.2°
